STARLINK-35895

Last updated on Sun Dec 07 2025 00:02:05 GMT+0000 (Coordinated Universal Time)

1 66354U 25254G 25340.58335648 -.00102055 00000+0 -18494-2 0 9990 2 66354 53.1594 306.5124 0001109 85.6249 89.5022 15.49332356 5933
UTC large
Height (km)
Speed (km/s)
/
Latitude / Longitude
Inclination (degrees)
Orbital Period (minutes)
Azimuth
Elevation
Range (km)
Doppler Factor

Next 0 passes for location: London (51.5072 / 0.1276)

Sorry there are no passes over London.